TimeEST,TemperatureF,Dew PointF,Humidity,Sea Level PressureIn,VisibilityMPH,Wind Direction,Wind SpeedMPH,Gust SpeedMPH,PrecipitationIn,Events,Conditions,WindDirDegrees,DateUTC
12:52 AM,-15.0,-18.9,82,30.44,10.0,Calm,Calm,-,N/A,,Clear,0,2014-01-04 05:52:00
1:52 AM,-16.1,-18.9,87,30.47,10.0,Calm,Calm,-,N/A,,Clear,0,2014-01-04 06:52:00
2:52 AM,-16.1,-20.0,82,30.46,9.0,Calm,Calm,-,N/A,,Clear,0,2014-01-04 07:52:00
3:52 AM,-15.0,-20.9,75,30.46,8.0,Calm,Calm,-,N/A,,Clear,0,2014-01-04 08:52:00
4:52 AM,-15.0,-20.0,78,30.45,8.0,South,3.5,-,N/A,,Clear,190,2014-01-04 09:52:00
5:52 AM,-15.0,-20.9,75,30.48,8.0,Calm,Calm,-,N/A,,Clear,0,2014-01-04 10:52:00
6:52 AM,-15.0,-20.0,78,30.49,8.0,Calm,Calm,-,N/A,,Clear,0,2014-01-04 11:52:00
7:52 AM,-11.9,-17.0,78,30.50,6.0,Calm,Calm,-,N/A,,Haze,0,2014-01-04 12:52:00
8:52 AM,-9.0,-11.9,87,30.51,7.0,Calm,Calm,-,N/A,,Clear,0,2014-01-04 13:52:00
9:52 AM,-2.9,-8.0,79,30.48,8.0,Calm,Calm,-,N/A,,Partly Cloudy,0,2014-01-04 14:52:00
10:52 AM,6.1,-2.0,69,30.46,10.0,South,8.1,-,N/A,,Clear,170,2014-01-04 15:52:00
11:52 AM,14.0,-2.0,49,30.40,10.0,South,8.1,-,N/A,,Clear,170,2014-01-04 16:52:00
12:52 PM,18.0,-2.0,41,30.35,10.0,South,10.4,19.6,N/A,,Clear,180,2014-01-04 17:52:00
1:52 PM,19.0,-2.0,40,30.33,10.0,South,12.7,19.6,N/A,,Clear,180,2014-01-04 18:52:00
2:52 PM,19.9,-0.0,42,30.31,10.0,South,9.2,-,N/A,,Clear,190,2014-01-04 19:52:00
3:52 PM,21.0,-0.0,40,30.31,10.0,South,12.7,20.7,N/A,,Clear,180,2014-01-04 20:52:00
4:52 PM,19.0,1.0,46,30.30,10.0,Variable,3.5,-,N/A,,Clear,0,2014-01-04 21:52:00
5:52 PM,19.0,3.0,50,30.30,10.0,SSE,4.6,-,N/A,,Clear,150,2014-01-04 22:52:00
6:52 PM,19.9,3.0,48,30.29,10.0,South,9.2,-,N/A,,Clear,190,2014-01-04 23:52:00
7:52 PM,19.9,3.0,48,30.29,10.0,SSW,12.7,20.7,N/A,,Clear,200,2014-01-05 00:52:00
8:52 PM,19.0,3.9,52,30.30,10.0,SSW,13.8,-,N/A,,Clear,200,2014-01-05 01:52:00
9:52 PM,21.0,5.0,50,30.29,10.0,SSW,11.5,-,N/A,,Clear,200,2014-01-05 02:52:00
10:52 PM,19.9,5.0,52,30.28,10.0,SSW,9.2,-,N/A,,Clear,200,2014-01-05 03:52:00
11:52 PM,19.0,5.0,54,30.28,10.0,South,4.6,-,N/A,,Clear,190,2014-01-05 04:52:00